Lid_Strength_Index
3 3 3 3 4 5 5 5 6 8 8 8 8 9 9 8 8 8 8 7 8 8 8 9 9 9 8 8 7 7 7 7
3 4 4 5 6 6 7 7 8 7 8 8 10 10 10 9 8 8 9 8 8 9 9 9 9 8 8 7 7 7 7 7
5 5 5 5 6 7 7 8 8 8 7 8 9 9 10 9 9 9 9 9 8 8 9 9 9 9 9 8 7 8 8 7
7 7 7 8 8 8 8 8 8 8 8 8 8 9 10 10 10 10 9 8 9 9 9 8 8 9 10 9 8 8 9 8
7 7 8 8 8 8 8 7 7 7 7 9 10 11 11 11 10 10 9 9 9 8 8 8 9 9 10 8 8 8 8 9
7 7 7 8 8 8 7 7 7 8 9 9 9 10 10 10 10 10 10 9 8 8 8 9 9 9 10 9 9 9 9 9
6 6 6 7 7 8 7 7 8 9 8 9 9 10 10 10 10 10 10 9 9 9 9 9 9 9 9 9 9 9 9 9
6 7 7 8 8 8 8 8 9 8 8 8 9 9 9 9 10 9 9 10 10 10 9 9 10 9 9 9 9 9 10 10
6 7 7 8 7 8 7 9 9 8 8 8 7 8 8 9 8 8 9 9 10 10 10 9 9 9 9 9 9 9 10 10
7 7 7 7 8 8 7 8 9 8 7 8 9 8 8 8 8 9 9 9 9 10 10 10 9 9 9 9 10 10 10 10
7 7 7 7 7 7 7 8 10 9 9 9 9 9 8 8 8 9 9 9 10 10 11 10 9 9 9 9 10 9 10 10
8 8 7 7 7 8 9 8 9 9 10 9 9 10 9 8 9 9 9 9 10 11 11 11 9 9 9 9 9 9 9 10
7 8 8 8 8 9 8 8 8 9 9 10 10 9 9 10 9 9 9 10 10 10 10 9 8 8 8 9 9 9 10 10
7 8 9 9 9 9 9 9 8 8 9 10 10 10 10 10 10 10 10 10 10 10 10 9 8 8 8 8 9 9 9 10
7 8 8 9 9 9 9 9 9 9 8 9 9 10 10 10 10 10 10 10 11 10 10 10 9 9 9 8 8 9 9 9
7 8 9 9 9 8 9 9 9 9 9 9 9 10 10 10 10 10 10 10 11 11 11 11 11 11 10 10 9 9 10 10
7 7 8 9 8 9 9 9 9 9 9 9 9 9 9 9 10 10 10 11 11 12 12 12 13 11 11 11 10 10 10 11
7 7 8 8 8 8 9 9 9 9 9 9 9 9 9 10 10 10 11 11 12 13 13 13 13 13 11 11 11 10 10 11
9 6 6 7 8 8 9 9 9 9 9 9 9 9 9 9 10 10 11 11 12 13 14 13 13 13 11 11 11 11 11 12